Simultaneous Nadir Overpasses (SNOs) Predictions

Prediction of SNOs between METOP-C and LANDSAT-8 Satellite Orbit:

Table of predicted SNOs for the next 14.0 days since TLE Epoch: 1/18/2025
Index Date (METOP-C) Time (METOP-C) Lat,Lon (METOP-C) SZA (METOP-C ) Date (LANDSAT-8) Time (LANDSAT-8) Lat,Lon (LANDSAT-8) SZA (LANDSAT-8 ) Distance(km) Time Diff (sec)
1 01/19/2025 11:07:25 81.11, 52.56 102.99 01/19/2025 11:07:47 81.11, 52.69 103.01 2.31 22
2 01/19/2025 11:58:04 -81.13,-139.58 76.96 01/19/2025 11:57:13 -81.13,-139.40 76.97 3.20 51
3 01/22/2025 06:41:49 81.11, 118.84 102.33 01/22/2025 06:42:00 81.11, 119.03 102.35 3.31 11
4 01/22/2025 07:32:26 -81.15, -72.53 77.53 01/22/2025 07:31:25 -81.15, -72.67 77.57 2.37 61
5 01/25/2025 01:25:41 -80.94, 13.97 78.82 01/25/2025 01:26:55 -80.85, 14.23 78.86 11.56 74
6 01/25/2025 02:16:10 81.13,-174.25 101.71 01/25/2025 02:16:10 81.13,-174.20 101.71 0.76 0
7 01/25/2025 03:06:49 -81.14, -6.35 78.24 01/25/2025 03:05:36 -81.15, -6.25 78.26 1.77 73
8 01/27/2025 20:59:54 -81.10, 84.09 79.11 01/27/2025 21:00:56 -81.10, 84.24 79.07 2.67 62
9 01/27/2025 21:50:33 81.13,-107.82 100.98 01/27/2025 21:50:21 81.13,-107.74 100.98 1.41 12
10 01/30/2025 16:34:16 -81.11, 150.80 79.84 01/30/2025 16:35:06 -81.11, 150.79 79.82 0.16 50



Historial Predications of SNOs between METOP-C and LANDSAT-8
